• In Hungary
  • List of Countries
  • For 7 days
  • Water Temperature
  • Satellite Maps
  • Weather Map
  • News
  • Weather Widgets
  • user-avatar
    Login

    Hourly Weather Staishche

    Today, 19 February, Monday

    Time Temperature Precipitation Wind Pressure Humidity
    00:00 -10°C° 0 mm 2 mps 675 mmHg 100%
    01:00 -12°C° 0 mm 2 mps 674 mmHg 100%
    02:00 -6°C° 0 mm 0 mps 676 mmHg 100%
    03:00 -9°C° 0 mm 1 mps 675 mmHg 100%
    04:00 -9°C° 0 mm 1 mps 674 mmHg 100%
    05:00 -10°C° 0 mm 1 mps 674 mmHg 100%
    06:00 -10°C° 0 mm 1 mps 674 mmHg 100%
    07:00 -11°C° 0 mm 1 mps 674 mmHg 100%
    08:00 -11°C° 0 mm 1 mps 674 mmHg 100%
    09:00 -11°C° 0 mm 1 mps 674 mmHg 100%
    10:00 -10°C° 0 mm 1 mps 674 mmHg 100%
    11:00 -9°C° 0 mm 1 mps 675 mmHg 100%
    12:00 -8°C° 0 mm 1 mps 675 mmHg 100%
    13:00 -7°C° 0 mm 1 mps 675 mmHg 100%
    14:00 0°C° 0 mm 1 mps 677 mmHg 66%
    15:00 -4°C° 0 mm 2 mps 676 mmHg 92%
    16:00 -5°C° 0 mm 2 mps 675 mmHg 98%
    17:00 -6°C° 0 mm 2 mps 675 mmHg 100%
    18:00 -7°C° 0 mm 1 mps 674 mmHg 100%
    19:00 -7°C° 0 mm 1 mps 674 mmHg 100%
    20:00 -7°C° 0 mm 1 mps 674 mmHg 100%
    21:00 -7°C° 0 mm 1 mps 674 mmHg 100%
    22:00 -7°C° 0 mm 1 mps 674 mmHg 100%
    23:00 -7°C° 0 mm 1 mps 674 mmHg 92%

    Tomorrow, 20 February, Tuesday

    Time Temperature Precipitation Wind Pressure Humidity
    00:00 -7°C° 0 mm 1 mps 674 mmHg 84%
    01:00 -7°C° 0 mm 1 mps 674 mmHg 74%
    02:00 -7°C° 0 mm 1 mps 673 mmHg 66%
    03:00 -6°C° 0 mm 1 mps 673 mmHg 58%
    04:00 -6°C° 0 mm 1 mps 673 mmHg 54%
    05:00 -6°C° 0 mm 1 mps 673 mmHg 53%
    06:00 -6°C° 0 mm 1 mps 673 mmHg 54%
    07:00 -6°C° 0 mm 1 mps 673 mmHg 56%
    08:00 -6°C° 0 mm 1 mps 672 mmHg 56%
    09:00 -6°C° 0 mm 1 mps 672 mmHg 59%
    10:00 -6°C° 0 mm 2 mps 673 mmHg 76%
    11:00 -5°C° 0 mm 2 mps 673 mmHg 80%
    12:00 -5°C° 0 mm 3 mps 673 mmHg 90%
    13:00 -5°C° 0 mm 3 mps 673 mmHg 94%
    14:00 -5°C° 0 mm 4 mps 673 mmHg 97%
    15:00 -5°C° 0 mm 4 mps 673 mmHg 99%
    16:00 -5°C° 0 mm 3 mps 673 mmHg 100%
    17:00 -7°C° 0 mm 4 mps 672 mmHg 100%
    18:00 -7°C° 0 mm 3 mps 672 mmHg 100%
    19:00 -8°C° 0 mm 4 mps 672 mmHg 100%
    20:00 -8°C° 0 mm 3 mps 671 mmHg 100%
    21:00 -8°C° 0.1 mm 3 mps 671 mmHg 100%
    22:00 -8°C° 0.1 mm 3 mps 671 mmHg 100%
    23:00 -8°C° 0 mm 2 mps 671 mmHg 100%

    Day after tomorrow, 21 February, Wednesday

    Time Temperature Precipitation Wind Pressure Humidity
    00:00 -7°C° 0 mm 2 mps 671 mmHg 100%
    01:00 -7°C° 0 mm 2 mps 671 mmHg 100%
    02:00 -7°C° 0 mm 2 mps 671 mmHg 100%
    03:00 -7°C° 0 mm 2 mps 671 mmHg 98%
    04:00 -6°C° 0 mm 1 mps 671 mmHg 95%
    05:00 -4°C° 0 mm 1 mps 671 mmHg 91%
    06:00 -4°C° 0 mm 1 mps 671 mmHg 88%
    07:00 -6°C° 0 mm 1 mps 671 mmHg 82%
    08:00 -7°C° 0 mm 2 mps 671 mmHg 76%
    09:00 -6°C° 0 mm 2 mps 671 mmHg 76%
    10:00 -5°C° 0 mm 2 mps 672 mmHg 86%
    11:00 -4°C° 0 mm 2 mps 672 mmHg 90%
    12:00 -3°C° 0 mm 2 mps 672 mmHg 94%
    13:00 -2°C° 0 mm 2 mps 672 mmHg 99%
    14:00 -2°C° 0 mm 2 mps 672 mmHg 100%
    15:00 -1°C° 0 mm 2 mps 672 mmHg 100%
    16:00 -1°C° 0 mm 2 mps 672 mmHg 100%
    17:00 -2°C° 0 mm 2 mps 672 mmHg 100%
    18:00 -1°C° 0 mm 1 mps 671 mmHg 100%
    19:00 -2°C° 0 mm 1 mps 671 mmHg 100%
    20:00 -2°C° 0 mm 1 mps 671 mmHg 100%
    21:00 -2°C° 0 mm 1 mps 672 mmHg 100%
    22:00 -2°C° 0 mm 1 mps 672 mmHg 100%
    23:00 -2°C° 0 mm 1 mps 672 mmHg 100%

    22 February, Thursday

    Time Temperature Precipitation Wind Pressure Humidity
    00:00 -3°C° 0 mm 0 mps 672 mmHg 98%
    01:00 -4°C° 0 mm 0 mps 671 mmHg 96%
    02:00 -4°C° 0 mm 0 mps 671 mmHg 97%
    03:00 -3°C° 0 mm 1 mps 671 mmHg 96%
    04:00 -4°C° 0 mm 1 mps 671 mmHg 95%
    05:00 -4°C° 0 mm 1 mps 671 mmHg 93%
    06:00 -4°C° 0 mm 1 mps 670 mmHg 90%
    07:00 -6°C° 0 mm 1 mps 671 mmHg 90%
    08:00 -6°C° 0 mm 1 mps 671 mmHg 87%
    09:00 -6°C° 0 mm 1 mps 671 mmHg 87%
    10:00 -6°C° 0 mm 2 mps 671 mmHg 96%
    11:00 -5°C° 0 mm 2 mps 671 mmHg 97%
    12:00 -4°C° 0 mm 2 mps 672 mmHg 94%
    13:00 -4°C° 0 mm 3 mps 672 mmHg 95%
    14:00 -4°C° 0 mm 3 mps 671 mmHg 100%
    15:00 -4°C° 0 mm 3 mps 671 mmHg 100%
    16:00 -5°C° 0.4 mm 3 mps 671 mmHg 100%
    17:00 -4°C° 0.2 mm 2 mps 671 mmHg 100%
    18:00 -5°C° 0 mm 2 mps 671 mmHg 100%
    19:00 -5°C° 0 mm 2 mps 671 mmHg 100%
    20:00 -5°C° 0 mm 2 mps 671 mmHg 100%
    21:00 -3°C° 0 mm 1 mps 671 mmHg 100%
    22:00 -3°C° 0 mm 1 mps 671 mmHg 100%
    23:00 -2°C° 0 mm 1 mps 671 mmHg 100%

    23 February, Friday

    Time Temperature Precipitation Wind Pressure Humidity
    00:00 -2°C° 0 mm 1 mps 670 mmHg 100%
    01:00 -4°C° 0 mm 0 mps 670 mmHg 100%
    02:00 -4°C° 0 mm 0 mps 670 mmHg 100%
    03:00 -3°C° 0 mm 0 mps 670 mmHg 100%
    04:00 -3°C° 0 mm 0 mps 670 mmHg 100%
    05:00 -2°C° 0 mm 1 mps 669 mmHg 100%
    06:00 -2°C° 0 mm 1 mps 669 mmHg 100%
    07:00 -3°C° 0 mm 1 mps 669 mmHg 100%
    08:00 -3°C° 0 mm 1 mps 669 mmHg 100%
    09:00 -4°C° 0 mm 0 mps 669 mmHg 100%
    10:00 -2°C° 0 mm 1 mps 669 mmHg 100%
    11:00 -1°C° 0 mm 1 mps 669 mmHg 100%
    12:00 -1°C° 0.2 mm 1 mps 669 mmHg 100%
    13:00 -1°C° 0.3 mm 1 mps 669 mmHg 100%
    14:00 -1°C° 0.9 mm 1 mps 669 mmHg 100%

    24 February, Saturday

    Time Temperature Precipitation Wind Pressure Humidity
    Show more